Tracking 25195 objects as of 20-Jan-2022
HD Live streaming from Space Station
objects crossing your sky now

FENGYUN 2H AKM

Track FENGYUN 2H AKM now!


NORAD ID: 43497
Int'l Code: 2018-050C
Perigee: 35,497.3 km
Apogee: 36,208.0 km
Inclination: 0.7 °
Period: 1,439.1 minutes
Semi major axis: 42223 km
RCS: Unknown
Launch date: June 5, 2018
Source: People's Republic of China (PRC)
Launch site: Xichang Space Center, China (XSC)

Note: This is a ROCKET BODY
aabbcc
Your satellite tracking list
Your tracking list is empty




NASA's NSSDC Master Catalog

Two Line Element Set (TLE):
1 43497U 18050C   22020.04685361  .00000120  00000-0  00000-0 0  9993
2 43497   0.7339 102.9213 0084149 269.3162 347.9449  1.00062040 13203
Source of the keplerian elements: AFSPC